When you browse on this site, cookies collect data to enhance your experience and personalize the content and advertising you see.
Visit our Privacy Policy to learn more. By continuing to use the site, you agree to this use of cookies and data.

Hourly Weather Columbia

Today, 5 July, Sunday

Time Temperature Precipitation Wind Pressure Humidity
00:00 +27°C° 0 mm 2 mps 752 mmHg 65%
01:00 +27°C° 0 mm 3 mps 753 mmHg 62%
02:00 +26°C° 0 mm 2 mps 753 mmHg 63%
03:00 +26°C° 0 mm 2 mps 752 mmHg 64%
04:00 +26°C° 0 mm 2 mps 752 mmHg 66%
05:00 +26°C° 0 mm 1 mps 752 mmHg 66%
06:00 +26°C° 0 mm 1 mps 753 mmHg 67%
07:00 +27°C° 0 mm 1 mps 753 mmHg 73%
08:00 +30°C° 0 mm 1 mps 753 mmHg 63%
09:00 +32°C° 0 mm 1 mps 753 mmHg 53%
10:00 +34°C° 0 mm 1 mps 753 mmHg 43%
11:00 +36°C° 0 mm 2 mps 753 mmHg 40%
12:00 +36°C° 0 mm 3 mps 753 mmHg 38%
13:00 +37°C° 0 mm 4 mps 753 mmHg 35%
14:00 +37°C° 0 mm 4 mps 753 mmHg 35%
15:00 +37°C° 0 mm 4 mps 753 mmHg 36%
16:00 +37°C° 0 mm 4 mps 752 mmHg 36%
17:00 +35°C° 0 mm 4 mps 752 mmHg 41%
18:00 +34°C° 0 mm 4 mps 752 mmHg 46%
19:00 +32°C° 0 mm 4 mps 753 mmHg 50%
20:00 +30°C° 0 mm 3 mps 753 mmHg 57%
21:00 +28°C° 0 mm 3 mps 753 mmHg 63%
22:00 +27°C° 0 mm 3 mps 754 mmHg 70%
23:00 +26°C° 0 mm 2 mps 754 mmHg 74%

Tomorrow, 6 July, Monday

Time Temperature Precipitation Wind Pressure Humidity
00:00 +25°C° 0 mm 2 mps 754 mmHg 78%
01:00 +24°C° 0 mm 2 mps 754 mmHg 82%
02:00 +24°C° 0 mm 2 mps 753 mmHg 84%
03:00 +24°C° 0 mm 2 mps 753 mmHg 85%
04:00 +24°C° 0 mm 2 mps 753 mmHg 86%
05:00 +25°C° 0 mm 2 mps 754 mmHg 84%
06:00 +25°C° 0 mm 2 mps 754 mmHg 82%
07:00 +26°C° 0 mm 2 mps 755 mmHg 80%
08:00 +28°C° 0.7 mm 2 mps 755 mmHg 74%
09:00 +29°C° 0.7 mm 2 mps 755 mmHg 68%
10:00 +31°C° 0.7 mm 3 mps 755 mmHg 62%
11:00 +33°C° 0.8 mm 3 mps 755 mmHg 59%
12:00 +33°C° 0.8 mm 3 mps 755 mmHg 56%
13:00 +34°C° 0.8 mm 4 mps 755 mmHg 53%
14:00 +35°C° 0.1 mm 3 mps 754 mmHg 50%
15:00 +35°C° 0.1 mm 3 mps 754 mmHg 46%
16:00 +36°C° 0.1 mm 3 mps 753 mmHg 43%
17:00 +34°C° 0.2 mm 3 mps 754 mmHg 51%
18:00 +31°C° 0.2 mm 3 mps 754 mmHg 59%
19:00 +30°C° 0.2 mm 3 mps 754 mmHg 67%
20:00 +29°C° 0.3 mm 3 mps 754 mmHg 71%
21:00 +28°C° 0.3 mm 3 mps 754 mmHg 76%
22:00 +27°C° 0.3 mm 3 mps 755 mmHg 81%
23:00 +26°C° 0 mm 2 mps 755 mmHg 84%

Day after tomorrow, 7 July, Tuesday

Time Temperature Precipitation Wind Pressure Humidity
00:00 +26°C° 0 mm 2 mps 754 mmHg 86%
01:00 +25°C° 0 mm 1 mps 754 mmHg 89%
02:00 +25°C° 0 mm 1 mps 754 mmHg 90%
03:00 +25°C° 0 mm 1 mps 754 mmHg 90%
04:00 +25°C° 0 mm 1 mps 754 mmHg 90%
05:00 +25°C° 0.4 mm 1 mps 754 mmHg 90%
06:00 +25°C° 0.4 mm 1 mps 754 mmHg 90%
07:00 +25°C° 0.4 mm 1 mps 754 mmHg 89%
08:00 +25°C° 0.9 mm 1 mps 754 mmHg 90%
09:00 +25°C° 0.9 mm 1 mps 755 mmHg 91%
10:00 +25°C° 0.9 mm 2 mps 755 mmHg 92%
11:00 +25°C° 0.7 mm 2 mps 754 mmHg 91%
12:00 +25°C° 0.7 mm 2 mps 754 mmHg 90%
13:00 +25°C° 0.7 mm 2 mps 754 mmHg 89%
14:00 +25°C° 1.4 mm 3 mps 754 mmHg 90%
15:00 +25°C° 1.4 mm 3 mps 754 mmHg 91%
16:00 +25°C° 1.4 mm 3 mps 753 mmHg 92%
17:00 +25°C° 0.4 mm 2 mps 753 mmHg 92%
18:00 +25°C° 0.4 mm 2 mps 753 mmHg 91%
19:00 +25°C° 0.4 mm 2 mps 753 mmHg 91%
20:00 +25°C° 1 mm 2 mps 753 mmHg 92%
21:00 +25°C° 1 mm 2 mps 753 mmHg 94%
22:00 +24°C° 1 mm 2 mps 753 mmHg 95%
23:00 +24°C° 0.3 mm 2 mps 753 mmHg 96%

8 July, Wednesday

Time Temperature Precipitation Wind Pressure Humidity
00:00 +24°C° 0.3 mm 2 mps 753 mmHg 96%
01:00 +25°C° 0.3 mm 2 mps 752 mmHg 97%
02:00 +25°C° 0.1 mm 1 mps 752 mmHg 96%
03:00 +25°C° 0.1 mm 1 mps 752 mmHg 96%
04:00 +25°C° 0.1 mm 1 mps 751 mmHg 96%
05:00 +25°C° 0.3 mm 1 mps 752 mmHg 96%
06:00 +25°C° 0.3 mm 1 mps 752 mmHg 95%
07:00 +25°C° 0.3 mm 1 mps 752 mmHg 95%
08:00 +26°C° 0.5 mm 1 mps 752 mmHg 92%
09:00 +27°C° 0.5 mm 1 mps 752 mmHg 88%
10:00 +27°C° 0.5 mm 1 mps 752 mmHg 85%
11:00 +29°C° 0.6 mm 2 mps 752 mmHg 77%
12:00 +31°C° 0.6 mm 2 mps 751 mmHg 69%
13:00 +32°C° 0.6 mm 2 mps 751 mmHg 61%
14:00 +32°C° 0.6 mm 2 mps 750 mmHg 61%
15:00 +34°C° 0.6 mm 2 mps 750 mmHg 61%
16:00 +34°C° 0.6 mm 2 mps 750 mmHg 60%
17:00 +32°C° 0.5 mm 2 mps 750 mmHg 65%
18:00 +31°C° 0.5 mm 1 mps 750 mmHg 69%
19:00 +30°C° 0.5 mm 1 mps 750 mmHg 74%
20:00 +29°C° 0 mm 1 mps 750 mmHg 76%
21:00 +28°C° 0 mm 1 mps 750 mmHg 79%
22:00 +25°C° 0 mm 0 mps 751 mmHg 81%
23:00 +27°C° 0 mm 1 mps 750 mmHg 83%

9 July, Thursday

Time Temperature Precipitation Wind Pressure Humidity
00:00 +26°C° 0 mm 1 mps 750 mmHg 85%
01:00 +26°C° 0 mm 1 mps 750 mmHg 87%
02:00 +26°C° 0 mm 1 mps 750 mmHg 88%
03:00 +26°C° 0 mm 1 mps 750 mmHg 89%
04:00 +25°C° 0 mm 1 mps 750 mmHg 90%
05:00 +26°C° 0 mm 1 mps 750 mmHg 87%
06:00 +26°C° 0 mm 1 mps 750 mmHg 85%
07:00 +27°C° 0 mm 1 mps 751 mmHg 83%
08:00 +29°C° 0 mm 1 mps 751 mmHg 74%
09:00 +31°C° 0 mm 1 mps 751 mmHg 66%
10:00 +33°C° 0 mm 1 mps 751 mmHg 57%
11:00 +35°C° 0 mm 1 mps 751 mmHg 52%
12:00 +36°C° 0 mm 1 mps 751 mmHg 47%
13:00 +36°C° 0 mm 0 mps 751 mmHg 41%
14:00 +37°C° 0 mm 1 mps 750 mmHg 44%
15:00 +38°C° 0 mm 2 mps 750 mmHg 46%
16:00 +37°C° 0 mm 2 mps 750 mmHg 48%
17:00 +36°C° 0 mm 2 mps 750 mmHg 53%
18:00 +35°C° 0 mm 2 mps 750 mmHg 59%
19:00 +33°C° 0 mm 1 mps 750 mmHg 64%
20:00 +31°C° 0.5 mm 1 mps 750 mmHg 68%
21:00 +30°C° 0.5 mm 1 mps 750 mmHg 72%
22:00 +29°C° 0.5 mm 1 mps 751 mmHg 76%
23:00 +29°C° 0.1 mm 1 mps 751 mmHg 78%

10 July, Friday

Time Temperature Precipitation Wind Pressure Humidity
00:00 +28°C° 0.1 mm 1 mps 751 mmHg 80%
01:00 +28°C° 0.1 mm 2 mps 750 mmHg 83%
02:00 +27°C° 0 mm 2 mps 751 mmHg 84%
03:00 +27°C° 0 mm 2 mps 751 mmHg 86%
04:00 +27°C° 0 mm 1 mps 751 mmHg 87%
05:00 +28°C° 0 mm 1 mps 751 mmHg 86%
06:00 +28°C° 0 mm 1 mps 751 mmHg 84%
07:00 +29°C° 0 mm 1 mps 751 mmHg 82%
08:00 +31°C° 0.1 mm 1 mps 752 mmHg 72%
09:00 +33°C° 0.1 mm 1 mps 752 mmHg 63%
10:00 +35°C° 0.1 mm 1 mps 752 mmHg 53%
11:00 +37°C° 0 mm 2 mps 751 mmHg 50%
12:00 +38°C° 0 mm 2 mps 751 mmHg 46%
13:00 +39°C° 0 mm 2 mps 751 mmHg 43%
14:00 +39°C° 0 mm 2 mps 751 mmHg 42%
15:00 +39°C° 0 mm 2 mps 750 mmHg 42%
16:00 +39°C° 0 mm 2 mps 750 mmHg 42%
17:00 +37°C° 0.1 mm 2 mps 750 mmHg 47%
18:00 +36°C° 0.1 mm 3 mps 750 mmHg 53%
19:00 +34°C° 0.1 mm 3 mps 750 mmHg 58%
20:00 +33°C° 1.3 mm 3 mps 750 mmHg 66%
21:00 +30°C° 1.3 mm 2 mps 751 mmHg 73%
22:00 +28°C° 1.3 mm 2 mps 751 mmHg 81%
23:00 +28°C° 0.6 mm 2 mps 751 mmHg 83%
Show more